Vorticity
8 8 7 4 3 2 2 5 5 5 4 5 7 10 11 14 16 14 11 8 8 9
9 7 5 3 3 3 5 4 4 2 3 5 10 9 14 16 15 10 9 9 12 14
8 5 4 3 4 5 4 5 2 1 6 9 9 14 17 16 11 9 11 15 9 8
7 5 5 5 6 4 4 3 0 6 10 9 13 17 15 11 10 13 12 6 6 9
6 6 5 5 4 4 3 2 6 11 8 12 17 15 12 10 11 6 4 4 9 9
7 5 5 3 4 2 2 -1 13 9 9 15 14 12 10 11 7 4 4 6 11 10
5 5 3 3 2 2 0 15 9 8 13 13 13 10 8 9 9 6 8 10 11 10
4 4 4 3 2 -1 8 14 9 11 13 12 10 8 7 8 8 6 7 6 9 10
5 6 2 1 1 2 21 9 10 13 11 9 8 8 9 9 8 9 9 10 10 9
5 1 0 4 5 23 11 9 11 11 10 9 9 10 10 9 9 10 9 9 8 7
1 -0 3 2 -1 20 9 10 11 10 10 11 11 11 9 9 9 7 7 6 5 5
2 6 6 -9 19 8 10 11 11 11 13 13 11 7 7 7 6 6 5 5 6 10
5 6 -10 26 9 10 12 12 13 13 10 7 6 6 6 7 5 3 5 12 17 19
3 -1 35 9 9 12 12 13 11 8 6 6 6 7 6 5 7 11 15 11 13 14
Height
3113 3115 3116 3117 3118 3119 3118 3117 3116 3113 3110 3105 3098 3094 3090 3086 3081 3077 3073 3070 3066 3061
3106 3108 3110 3111 3112 3111 3110 3109 3107 3104 3100 3093 3089 3086 3082 3078 3073 3069 3066 3062 3058 3053
3099 3101 3103 3104 3104 3104 3103 3101 3099 3095 3090 3085 3082 3078 3074 3069 3065 3061 3059 3054 3050 3046
3093 3094 3096 3097 3096 3096 3094 3092 3090 3085 3080 3077 3074 3069 3065 3060 3058 3055 3052 3047 3043 3039
3085 3087 3088 3089 3088 3086 3084 3082 3079 3075 3073 3069 3065 3060 3057 3054 3051 3049 3045 3041 3036 3031
3078 3079 3080 3080 3079 3077 3075 3073 3070 3067 3064 3060 3056 3053 3051 3048 3045 3042 3038 3033 3027 3023
3070 3071 3071 3071 3070 3068 3066 3064 3062 3060 3056 3052 3049 3046 3044 3041 3038 3034 3029 3025 3020 3015
3061 3062 3062 3061 3060 3059 3058 3057 3055 3051 3048 3045 3042 3040 3037 3035 3031 3026 3022 3017 3012 3007
3052 3052 3053 3052 3052 3051 3051 3049 3047 3044 3041 3037 3035 3034 3031 3027 3022 3018 3014 3009 3004 2998
3043 3044 3045 3044 3044 3045 3044 3041 3038 3036 3034 3032 3029 3027 3023 3018 3015 3011 3006 3001 2996 2989
3035 3035 3035 3036 3038 3037 3036 3034 3031 3029 3028 3025 3022 3018 3015 3012 3009 3004 2999 2993 2986 2980
3027 3028 3028 3031 3031 3030 3028 3027 3025 3023 3021 3019 3015 3012 3008 3005 3001 2996 2991 2985 2977 2969
3019 3019 3022 3024 3024 3023 3022 3020 3019 3017 3015 3012 3009 3006 3003 2999 2993 2988 2982 2975 2968 2961
3010 3014 3017 3017 3017 3016 3015 3015 3013 3011 3008 3005 3002 2998 2994 2990 2986 2979 2972 2965 2958 2951